TimeCST,TemperatureF,Dew PointF,Humidity,Sea Level PressureIn,VisibilityMPH,Wind Direction,Wind SpeedMPH,Gust SpeedMPH,PrecipitationIn,Events,Conditions,WindDirDegrees,DateUTC
12:15 AM,19.2,9.1,65,30.16,10.0,NNW,20.7,29.9,N/A,,Clear,330,2013-03-05 06:15:00
12:35 AM,18.9,8.8,65,30.17,10.0,NW,16.1,23.0,N/A,,Clear,320,2013-03-05 06:35:00
12:55 AM,18.9,7.9,62,30.17,10.0,NNW,25.3,29.9,N/A,,Clear,330,2013-03-05 06:55:00
1:15 AM,18.5,7.7,63,30.17,10.0,NW,20.7,26.5,N/A,,Clear,320,2013-03-05 07:15:00
1:55 AM,18.5,6.8,60,30.18,10.0,NW,18.4,23.0,N/A,,Clear,320,2013-03-05 07:55:00
2:15 AM,18.5,6.1,58,30.17,10.0,NW,20.7,-,N/A,,Clear,320,2013-03-05 08:15:00
2:35 AM,18.9,5.9,57,30.17,10.0,NW,23.0,28.8,N/A,,Clear,320,2013-03-05 08:35:00
2:55 AM,18.5,5.9,58,30.17,10.0,NNW,21.9,-,N/A,,Clear,330,2013-03-05 08:55:00
3:15 AM,18.3,5.9,58,30.17,10.0,NNW,21.9,28.8,N/A,,Clear,330,2013-03-05 09:15:00
3:35 AM,17.8,5.9,60,30.17,10.0,NNW,21.9,-,N/A,,Clear,340,2013-03-05 09:35:00
3:55 AM,18.3,6.3,59,30.17,10.0,NNW,25.3,32.2,N/A,,Clear,340,2013-03-05 09:55:00
4:15 AM,18.3,6.4,60,30.17,10.0,NNW,24.2,34.5,N/A,,Clear,330,2013-03-05 10:15:00
4:35 AM,18.1,6.6,61,30.17,10.0,NNW,19.6,29.9,N/A,,Clear,330,2013-03-05 10:35:00
4:55 AM,17.6,6.8,63,30.17,10.0,NNW,20.7,26.5,N/A,,Clear,330,2013-03-05 10:55:00
5:15 AM,17.6,6.6,62,30.18,10.0,NNW,18.4,25.3,N/A,,Clear,330,2013-03-05 11:15:00
5:35 AM,17.6,6.8,63,30.19,10.0,NNW,17.3,24.2,N/A,,Clear,330,2013-03-05 11:35:00
5:55 AM,17.4,7.0,64,30.19,10.0,NNW,16.1,-,N/A,,Clear,330,2013-03-05 11:55:00
6:15 AM,17.4,7.5,65,30.19,10.0,NNW,15.0,21.9,N/A,,Clear,330,2013-03-05 12:15:00
7:15 AM,15.3,8.2,74,30.21,10.0,NNW,10.4,-,N/A,,Clear,330,2013-03-05 13:15:00
7:35 AM,14.9,8.4,76,30.21,10.0,NW,8.1,-,N/A,,Clear,310,2013-03-05 13:35:00
7:55 AM,15.1,9.1,77,30.21,10.0,WNW,6.9,-,N/A,,Clear,300,2013-03-05 13:55:00
8:15 AM,16.3,9.5,74,30.22,10.0,West,10.4,-,N/A,,Clear,280,2013-03-05 14:15:00
8:35 AM,18.7,9.5,67,30.22,10.0,WNW,9.2,-,N/A,,Clear,300,2013-03-05 14:35:00
8:55 AM,20.8,9.3,61,30.23,10.0,NNW,4.6,-,N/A,,Clear,330,2013-03-05 14:55:00
9:15 AM,22.8,10.4,59,30.23,10.0,NNW,6.9,-,N/A,,Clear,330,2013-03-05 15:15:00
9:35 AM,25.9,10.8,53,30.23,10.0,NNW,5.8,-,N/A,,Clear,340,2013-03-05 15:35:00
9:55 AM,28.4,9.1,44,30.24,10.0,NW,6.9,-,N/A,,Clear,310,2013-03-05 15:55:00
10:15 AM,30.4,8.8,40,30.24,10.0,NNW,9.2,-,N/A,,Clear,340,2013-03-05 16:15:00
10:35 AM,31.1,8.1,38,30.25,10.0,NNW,5.8,-,N/A,,Clear,330,2013-03-05 16:35:00
10:55 AM,31.5,7.9,37,30.24,10.0,Calm,Calm,-,N/A,,Clear,0,2013-03-05 16:55:00
11:15 AM,32.2,8.1,36,30.24,10.0,NW,3.5,-,N/A,,Clear,320,2013-03-05 17:15:00
11:35 AM,33.6,9.0,36,30.24,10.0,West,6.9,-,N/A,,Clear,280,2013-03-05 17:35:00
11:55 AM,34.2,9.0,35,30.24,10.0,Calm,Calm,-,N/A,,Clear,0,2013-03-05 17:55:00
12:15 PM,34.9,9.3,35,30.23,10.0,Calm,Calm,-,N/A,,Clear,0,2013-03-05 18:15:00
12:35 PM,35.8,9.9,34,30.22,10.0,West,6.9,-,N/A,,Clear,270,2013-03-05 18:35:00
12:55 PM,36.5,9.1,32,30.22,10.0,Calm,Calm,-,N/A,,Clear,0,2013-03-05 18:55:00
1:15 PM,37.2,9.9,32,30.21,10.0,Calm,Calm,-,N/A,,Clear,0,2013-03-05 19:15:00
1:35 PM,38.1,9.5,31,30.20,10.0,WSW,6.9,-,N/A,,Clear,250,2013-03-05 19:35:00
1:55 PM,37.6,9.3,31,30.19,10.0,Calm,Calm,-,N/A,,Clear,0,2013-03-05 19:55:00
2:15 PM,39.4,10.2,30,30.18,10.0,Calm,Calm,-,N/A,,Clear,0,2013-03-05 20:15:00
2:35 PM,40.5,11.3,30,30.17,10.0,Calm,Calm,-,N/A,,Clear,0,2013-03-05 20:35:00
2:55 PM,41.0,8.4,26,30.17,10.0,SSW,4.6,-,N/A,,Clear,210,2013-03-05 20:55:00
3:15 PM,42.3,9.0,26,30.16,10.0,WSW,8.1,-,N/A,,Clear,250,2013-03-05 21:15:00
3:35 PM,42.1,9.7,27,30.16,10.0,SSW,9.2,-,N/A,,Clear,200,2013-03-05 21:35:00
3:55 PM,42.3,10.8,28,30.16,10.0,SW,11.5,-,N/A,,Clear,220,2013-03-05 21:55:00
4:15 PM,42.3,10.0,27,30.16,10.0,South,6.9,-,N/A,,Clear,190,2013-03-05 22:15:00
4:35 PM,42.6,9.9,26,30.15,10.0,SW,10.4,-,N/A,,Clear,220,2013-03-05 22:35:00
4:55 PM,41.5,12.6,31,30.15,10.0,South,9.2,-,N/A,,Clear,190,2013-03-05 22:55:00
5:15 PM,40.8,11.7,30,30.15,10.0,SSW,10.4,-,N/A,,Clear,210,2013-03-05 23:15:00
5:35 PM,40.3,10.9,30,30.14,10.0,SSW,10.4,-,N/A,,Clear,200,2013-03-05 23:35:00
5:55 PM,39.2,11.8,33,30.14,10.0,South,11.5,-,N/A,,Clear,190,2013-03-05 23:55:00
6:15 PM,37.8,12.2,35,30.15,10.0,SSW,11.5,-,N/A,,Clear,200,2013-03-06 00:15:00
6:35 PM,34.5,14.0,43,30.16,10.0,South,8.1,-,N/A,,Clear,190,2013-03-06 00:35:00
6:55 PM,32.0,14.7,49,30.15,10.0,South,9.2,-,N/A,,Clear,190,2013-03-06 00:55:00
7:15 PM,30.0,15.6,55,30.16,10.0,South,8.1,-,N/A,,Clear,180,2013-03-06 01:15:00
7:35 PM,27.3,15.6,61,30.15,10.0,South,6.9,-,N/A,,Clear,180,2013-03-06 01:35:00
7:55 PM,25.9,15.4,65,30.15,10.0,South,5.8,-,N/A,,Clear,170,2013-03-06 01:55:00
8:15 PM,25.5,15.4,66,30.15,10.0,South,6.9,-,N/A,,Clear,180,2013-03-06 02:15:00
8:35 PM,27.7,16.3,62,30.14,10.0,South,11.5,-,N/A,,Clear,190,2013-03-06 02:35:00
8:55 PM,25.7,15.8,66,30.14,10.0,South,8.1,-,N/A,,Clear,170,2013-03-06 02:55:00
9:15 PM,26.2,16.3,66,30.14,10.0,South,9.2,-,N/A,,Clear,180,2013-03-06 03:15:00
9:35 PM,26.2,15.8,65,30.14,10.0,South,6.9,-,N/A,,Clear,180,2013-03-06 03:35:00
9:55 PM,27.0,16.5,65,30.14,10.0,South,10.4,-,N/A,,Clear,170,2013-03-06 03:55:00
10:15 PM,27.7,16.5,63,30.14,10.0,South,13.8,-,N/A,,Clear,170,2013-03-06 04:15:00
10:35 PM,27.3,16.7,64,30.15,10.0,South,10.4,-,N/A,,Clear,170,2013-03-06 04:35:00
10:55 PM,25.7,16.7,69,30.14,10.0,South,12.7,-,N/A,,Clear,170,2013-03-06 04:55:00
11:15 PM,24.8,17.2,73,30.13,10.0,South,11.5,-,N/A,,Clear,180,2013-03-06 05:15:00
11:35 PM,26.2,18.1,71,30.13,10.0,South,13.8,-,N/A,,Clear,170,2013-03-06 05:35:00
11:55 PM,26.2,18.1,71,30.13,10.0,South,10.4,-,N/A,,Clear,170,2013-03-06 05:55:00